Stations météo

réclame
Mon MeteoGroup
Perpignan, France (7747): Température de l'air & dewpoint: 11.01.2018 02:00:00 - 17.01.2018 02:00:00 (CET)Perpignan, France (7747): Température de l'air 5cm: 11.01.2018 02:00:00 - 17.01.2018 02:00:00 (CET)Perpignan, France (7747): Température de l'air -20cm & Température de l'air -100cm: 11.01.2018 02:00:00 - 17.01.2018 02:00:00 (CET)Perpignan, France (7747): Vitesse du vent & gusts: 11.01.2018 02:00:00 - 17.01.2018 02:00:00 (CET)Perpignan, France (7747): Direction du vent: 11.01.2018 02:00:00 - 17.01.2018 02:00:00 (CET)Perpignan, France (7747): reduced air pressure: 11.01.2018 02:00:00 - 17.01.2018 02:00:00 (CET)Perpignan, France (7747): visibility: 11.01.2018 02:00:00 - 17.01.2018 02:00:00 (CET)Perpignan, France (7747): Quantités de précipitations: 11.01.2018 02:00:00 - 17.01.2018 02:00:00 (CET)
Date & Time tt [°C] td [°C] tt 5cm [°C] tt -20cm [°C] tt -100cm [°C] ff [km/h] ff [knt] fx [km/h] fx [knt] dd ppp [hPa] vv [km] rr [mm]
17.01.2018 02:00:00 - - - - - - - - - - - - -
17.01.2018 01:00:00 16,6 8,0 15,5 11,0 12,0 48 26 90 48 WNW 1014,1 10 0,0
17.01.2018 00:00:00 17,0 8,2 16,0 10,9 12,0 41 22 77 42 WNW 1015,3 10 0,0
16.01.2018 23:00:00 17,5 7,0 16,4 10,9 11,9 31 17 61 33 WNW 1015,5 10 0,0
16.01.2018 22:00:00 17,8 6,9 15,9 10,9 12,0 35 19 63 34 WNW 1015,8 10 0,0
16.01.2018 21:00:00 17,5 7,0 16,2 10,8 11,9 37 20 73 40 WNW 1016,1 10 0,0
16.01.2018 20:00:00 17,6 7,0 16,3 10,8 11,9 41 22 71 38 NW 1016,1 10 0,0
16.01.2018 19:00:00 17,9 6,4 16,5 10,7 11,9 39 21 63 34 NW 1016,0 10 0,0
16.01.2018 18:00:00 18,0 6,2 16,9 10,6 12,0 35 19 70 38 WNW 1016,2 60 0,0
16.01.2018 17:00:00 18,3 6,8 17,9 10,5 11,9 29 16 62 34 WNW 1016,5 42 0,0
16.01.2018 16:00:00 19,0 7,1 18,8 10,3 11,9 35 19 70 38 WNW 1016,7 18 0,0
16.01.2018 15:00:00 19,1 7,5 19,0 10,1 11,9 44 24 79 43 WNW 1016,8 10 0,0
16.01.2018 14:00:00 18,6 7,4 19,6 9,8 11,9 46 25 82 45 WNW 1017,0 38 0,0
16.01.2018 13:00:00 19,1 7,8 18,8 9,7 11,9 48 26 85 46 WNW 1017,9 10 0,0
16.01.2018 12:00:00 18,5 7,6 17,0 9,6 12,0 42 23 84 45 WNW 1018,2 10 0,0
16.01.2018 11:00:00 17,5 7,5 16,3 9,5 12,0 49 27 84 46 WNW 1018,6 33 0,0
16.01.2018 10:00:00 16,8 7,2 11,3 9,5 11,9 35 19 57 31 WNW 1018,6 10 0,0
16.01.2018 09:00:00 11,9 1,8 9,0 9,6 11,9 13 7 23 12 WSW 1018,5 60 0,0
16.01.2018 08:00:00 11,1 2,1 8,7 9,6 12,0 14 8 31 17 SW 1017,5 60 0,0
16.01.2018 07:00:00 10,8 2,4 9,2 9,6 11,9 16 9 29 16 WSW 1017,6 60 0,0
16.01.2018 06:00:00 10,5 2,1 8,3 9,7 11,9 11 6 34 18 SW 1017,7 10 0,0
16.01.2018 05:00:00 9,3 3,1 7,0 9,7 11,9 19 11 28 15 SW 1017,8 60 0,0
16.01.2018 04:00:00 9,0 3,8 7,1 9,8 11,9 16 8 28 15 WSW 1018,6 60 0,0
16.01.2018 03:00:00 8,7 4,3 7,5 9,8 11,9 6 3 24 13 W 1019,3 60 0,0
16.01.2018 02:00:00 8,1 4,7 6,8 9,9 11,9 7 4 14 8 WSW 1019,6 43 0,0
16.01.2018 01:00:00 8,1 4,9 7,2 9,9 11,9 9 5 15 8 SW 1019,8 10 0,0
16.01.2018 00:00:00 8,0 5,5 6,5 10,0 11,9 4 2 12 6 SSW 1020,9 10 0,0
15.01.2018 23:00:00 7,3 5,3 6,0 10,1 11,9 7 4 11 6 W 1020,9 50 0,0
15.01.2018 22:00:00 6,9 5,2 4,0 10,1 12,0 8 4 14 7 W 1021,1 47 0,0
15.01.2018 21:00:00 7,5 5,0 4,3 10,2 11,9 5 3 11 6 - 1020,9 10 0,0
15.01.2018 20:00:00 8,3 5,2 5,0 10,3 12,0 9 5 12 7 N 1021,4 23 0,0
15.01.2018 19:00:00 8,9 5,1 5,4 10,3 11,9 0 0 8 5 N 1021,2 38 0,0
15.01.2018 18:00:00 9,8 4,8 6,9 10,2 12,0 4 2 14 7 - 1021,4 10 0,0
15.01.2018 17:00:00 10,9 5,2 10,6 10,1 12,0 11 6 19 10 ESE 1021,7 10 0,0
15.01.2018 16:00:00 12,0 5,4 12,2 9,9 12,0 13 7 19 10 SE 1021,9 10 0,0
15.01.2018 15:00:00 13,7 4,6 14,4 9,7 11,9 8 4 18 10 ESE 1021,5 10 0,0
15.01.2018 14:00:00 14,1 4,1 17,5 9,5 11,9 9 5 18 10 S 1021,6 10 0,0
15.01.2018 13:00:00 13,5 4,6 16,8 9,4 12,0 2 1 14 7 NNW 1022,9 59 0,0
15.01.2018 12:00:00 12,2 4,2 16,2 9,3 11,9 8 4 21 12 WNW 1024,5 10 0,0
15.01.2018 11:00:00 11,1 3,6 15,7 9,3 12,0 5 3 19 10 NNW 1024,7 10 0,0
15.01.2018 10:00:00 9,9 4,7 8,1 9,3 12,0 6 4 10 6 W 1024,4 60 0,0
15.01.2018 09:00:00 8,1 4,1 5,5 9,4 12,0 6 3 19 11 NW 1023,8 60 0,0
15.01.2018 08:00:00 8,0 4,2 5,8 9,4 11,9 5 3 16 8 WNW 1023,3 10 0,0
15.01.2018 07:00:00 7,6 4,7 6,0 9,4 12,0 7 4 10 6 W 1022,8 60 0,0
15.01.2018 06:00:00 7,9 4,8 6,4 9,4 12,0 4 2 7 4 N 1022,6 50 0,0
15.01.2018 05:00:00 7,6 5,2 6,3 9,4 12,0 4 2 13 7 - 1022,3 10 0,2
15.01.2018 04:00:00 7,8 5,6 6,7 9,4 12,0 10 5 21 11 N 1022,3 58 0,4
15.01.2018 03:00:00 7,9 5,5 6,8 9,5 12,0 5 3 20 11 N 1022,3 10 0,2
15.01.2018 02:00:00 8,5 5,2 7,4 9,5 12,0 11 6 21 11 NNW 1021,9 10 0,0
15.01.2018 01:00:00 8,5 5,1 7,2 9,5 12,0 13 7 24 13 NW 1021,7 10 0,2
15.01.2018 00:00:00 8,7 4,7 7,8 9,5 12,0 14 7 22 12 NNW 1021,4 60 0,0
14.01.2018 23:00:00 8,3 4,9 7,5 9,6 12,0 16 9 32 17 NW 1020,8 10 0,0
14.01.2018 22:00:00 8,0 4,9 7,2 9,6 12,0 17 9 30 16 NW 1020,3 60 0,0
14.01.2018 21:00:00 8,0 4,9 6,9 9,6 12,0 15 8 26 14 NNW 1019,9 60 0,0
14.01.2018 20:00:00 7,5 6,1 6,9 9,7 12,0 13 7 19 10 NW 1019,5 15 1,8
14.01.2018 19:00:00 7,9 6,0 7,0 9,6 12,0 5 3 18 10 NNW 1018,7 7 1,2
14.01.2018 18:00:00 8,6 5,3 7,1 9,6 12,0 10 5 20 11 NW 1018,0 25 0,2
14.01.2018 17:00:00 9,1 5,1 7,9 9,5 12,0 8 4 17 9 NNW 1017,2 10 0,2
14.01.2018 16:00:00 9,7 4,9 8,7 9,4 12,0 11 6 23 12 NNW 1016,8 59 0,0
14.01.2018 15:00:00 10,5 5,3 10,7 9,3 12,1 13 7 22 12 N 1016,1 59 0,0
14.01.2018 14:00:00 10,6 5,1 11,2 9,1 12,1 6 3 11 6 ESE 1015,8 46 0,0
14.01.2018 13:00:00 11,0 4,4 12,2 9,0 12,1 0 0 10 5 N 1016,1 10 0,0
14.01.2018 12:00:00 10,7 5,2 11,1 8,9 12,1 5 3 10 6 - 1016,4 10 0,0
14.01.2018 11:00:00 9,3 5,3 9,4 8,9 12,1 2 1 6 3 E 1016,6 23 0,0
14.01.2018 10:00:00 8,4 4,4 6,2 8,9 12,1 8 4 16 9 WNW 1015,8 10 0,0
14.01.2018 09:00:00 6,6 4,3 5,3 8,9 12,1 6 3 11 6 WSW 1015,2 60 0,0
14.01.2018 08:00:00 6,4 4,6 5,4 8,9 12,2 7 4 11 6 W 1014,6 60 0,0
14.01.2018 07:00:00 6,7 4,7 5,9 8,9 12,2 5 3 13 7 W 1014,2 47 0,0
14.01.2018 06:00:00 6,9 5,2 5,3 8,9 12,2 7 4 12 6 WSW 1013,8 49 0,0
14.01.2018 05:00:00 7,0 4,8 6,1 8,9 12,2 10 6 17 9 NNW 1013,5 32 0,4
14.01.2018 04:00:00 7,6 4,4 6,1 8,9 12,2 5 3 12 7 W 1013,9 18 0,0
14.01.2018 03:00:00 7,3 4,1 6,5 8,9 12,2 4 2 14 8 WNW 1013,8 52 0,0
14.01.2018 02:00:00 8,7 5,6 7,2 8,9 12,2 11 6 16 9 WSW 1013,8 10 0,0
14.01.2018 01:00:00 9,1 4,7 8,1 8,9 12,2 9 5 39 21 WSW 1014,3 50 0,0
14.01.2018 00:00:00 10,5 6,1 8,6 8,8 12,2 12 7 30 16 SW 1014,5 60 0,0
13.01.2018 23:00:00 11,4 5,3 4,7 8,9 12,2 21 11 35 19 S 1014,3 60 0,0
13.01.2018 22:00:00 8,2 3,8 6,5 8,9 12,3 6 4 13 7 N 1014,3 16 0,0
13.01.2018 21:00:00 7,4 3,4 6,0 8,9 12,3 5 3 11 6 E 1014,7 15 0,0
13.01.2018 20:00:00 7,5 3,4 5,9 8,8 12,3 6 3 11 6 W 1015,2 37 0,0
13.01.2018 19:00:00 7,9 3,4 6,2 8,8 12,3 6 3 13 7 W 1015,2 27 0,0
13.01.2018 18:00:00 8,8 3,0 6,2 8,7 12,3 5 3 13 7 W 1015,0 29 0,0
13.01.2018 17:00:00 10,4 2,7 9,5 8,6 12,3 5 3 12 6 N 1014,8 60 0,0
13.01.2018 16:00:00 10,2 3,2 10,3 8,4 12,3 9 5 13 7 N 1015,1 58 0,0
13.01.2018 15:00:00 10,1 2,9 10,7 8,2 12,3 9 5 13 7 NE 1015,6 59 0,0
13.01.2018 14:00:00 10,1 2,7 11,8 8,0 12,3 9 5 14 8 NE 1016,4 32 0,0
13.01.2018 13:00:00 8,7 2,5 10,2 7,9 12,3 8 4 10 6 NNE 1017,5 46 0,0
13.01.2018 12:00:00 8,2 2,8 10,2 7,8 12,3 5 3 9 5 - 1018,7 10 0,0
13.01.2018 11:00:00 7,1 3,5 9,3 7,9 12,3 4 2 8 4 - 1019,2 10 0,0
13.01.2018 10:00:00 4,6 2,8 4,8 8,0 12,3 8 5 10 6 N 1019,4 41 0,0
13.01.2018 09:00:00 1,2 0,3 -4,4 8,1 12,3 5 3 10 5 WSW 1020,0 59 0,0
13.01.2018 08:00:00 -0,7 -1,8 -4,3 8,3 12,4 2 1 5 3 WSW 1020,3 60 0,0
13.01.2018 07:00:00 -0,6 -1,9 -4,4 8,4 12,4 5 3 8 4 W 1020,6 60 0,0
13.01.2018 06:00:00 -0,3 -1,9 -4,3 8,6 12,3 2 1 10 5 SW 1021,0 10 0,0
13.01.2018 05:00:00 0,3 -1,5 -3,5 8,7 12,4 4 2 6 3 SW 1021,2 10 0,0
13.01.2018 04:00:00 0,9 -0,7 -3,0 8,8 12,4 0 0 8 5 N 1021,8 60 0,0
13.01.2018 03:00:00 2,0 -0,3 -1,4 9,0 12,4 5 3 17 9 - 1022,1 10 0,0
13.01.2018 02:00:00 2,5 0,2 -0,9 9,1 12,4 13 7 16 9 W 1022,5 60 0,0
13.01.2018 01:00:00 3,0 -0,8 1,2 9,2 12,4 11 6 21 11 WSW 1023,2 56 0,0
13.01.2018 00:00:00 5,1 2,4 2,9 9,3 12,4 13 7 18 10 WSW 1023,8 59 0,0
12.01.2018 23:00:00 6,4 2,1 3,5 9,4 12,4 9 5 19 11 W 1024,0 60 0,0
12.01.2018 22:00:00 6,8 2,7 0,9 9,5 12,4 9 5 15 8 NNW 1024,1 10 0,0
12.01.2018 21:00:00 6,2 2,5 1,0 9,6 12,5 0 0 16 9 N 1024,1 10 0,0
12.01.2018 20:00:00 7,6 2,5 6,4 9,6 12,5 11 6 35 19 N 1023,6 60 0,0
12.01.2018 19:00:00 9,2 3,0 8,0 9,6 12,5 22 12 34 18 NW 1023,2 60 0,0
12.01.2018 18:00:00 9,7 2,1 8,7 9,6 12,5 20 11 46 25 NNW 1022,8 60 0,0
12.01.2018 17:00:00 10,7 2,0 10,4 9,5 12,5 22 12 52 28 NW 1022,3 10 0,0
12.01.2018 16:00:00 11,4 2,1 12,7 9,4 12,5 26 14 50 27 NW 1022,0 56 0,0
12.01.2018 15:00:00 11,8 1,7 12,6 9,2 12,4 31 17 63 34 NW 1021,6 56 0,0
12.01.2018 14:00:00 12,2 2,1 13,2 9,1 12,4 36 19 64 34 NW 1020,8 60 0,0
12.01.2018 13:00:00 11,7 1,9 11,9 9,0 12,5 29 16 54 29 NW 1022,4 10 0,0
12.01.2018 12:00:00 10,6 2,4 11,3 8,9 12,5 26 14 50 27 NNW 1023,3 10 0,0
12.01.2018 11:00:00 10,3 2,4 9,9 8,9 12,5 29 15 47 26 NW 1023,5 60 0,0
12.01.2018 10:00:00 9,5 1,9 9,5 9,0 12,5 28 15 50 27 NW 1023,4 44 0,0
12.01.2018 09:00:00 8,7 2,3 4,4 9,0 12,5 16 9 37 20 NNW 1023,4 10 0,0
12.01.2018 08:00:00 7,8 2,3 3,4 9,1 12,5 9 5 23 12 SW 1023,2 10 0,0
12.01.2018 07:00:00 7,8 2,3 5,2 9,1 12,5 7 4 36 19 WNW 1022,7 60 0,0
12.01.2018 06:00:00 8,1 2,3 6,9 9,3 12,5 28 15 46 25 WNW 1022,0 60 0,0
12.01.2018 05:00:00 8,0 2,0 6,5 9,3 12,5 24 13 45 24 NW 1021,8 60 0,0
12.01.2018 04:00:00 8,3 1,7 7,1 9,4 12,5 21 11 50 27 NW 1021,4 10 0,0
12.01.2018 03:00:00 8,4 1,5 7,6 9,4 12,5 33 18 64 35 NW 1020,9 60 0,0
12.01.2018 02:00:00 8,5 1,6 7,7 9,5 12,6 36 20 63 34 NW 1020,1 60 0,0
12.01.2018 01:00:00 8,5 1,6 7,8 9,6 12,6 35 19 70 38 NW 1020,1 10 0,0
12.01.2018 00:00:00 8,6 1,9 7,8 9,7 12,6 42 23 64 35 NW 1020,3 60 0,0
11.01.2018 23:00:00 8,7 1,8 7,8 9,7 12,6 31 17 68 37 NW 1020,1 10 0,0
11.01.2018 22:00:00 8,5 2,3 7,8 9,8 12,6 39 21 64 35 NW 1019,2 60 0,0
11.01.2018 21:00:00 9,0 2,5 8,2 9,9 12,6 36 20 61 33 NW 1018,7 60 0,0
11.01.2018 20:00:00 9,2 2,7 8,2 9,9 12,6 31 17 53 29 NNW 1018,5 60 0,0
11.01.2018 19:00:00 9,3 2,2 8,7 9,9 12,6 34 18 59 32 NNW 1017,6 10 0,0
11.01.2018 18:00:00 9,5 2,3 9,0 9,9 12,6 34 18 58 32 NW 1017,0 60 0,0
11.01.2018 17:00:00 10,0 2,8 9,8 9,9 12,6 31 17 54 29 NW 1016,4 51 0,0
11.01.2018 16:00:00 9,8 2,6 10,0 9,8 12,6 29 16 53 29 NW 1016,0 50 0,0
11.01.2018 15:00:00 9,9 2,7 10,5 9,7 12,6 30 16 56 31 NW 1015,8 54 0,0
11.01.2018 14:00:00 9,9 3,0 10,4 9,7 12,7 22 12 53 29 NW 1015,4 60 0,0
11.01.2018 13:00:00 10,1 2,4 10,8 9,6 12,6 34 19 67 36 NNW 1015,5 60 0,0
11.01.2018 12:00:00 9,8 2,9 10,5 9,5 12,7 37 20 68 37 NW 1015,2 10 0,0
11.01.2018 11:00:00 9,5 2,3 9,9 9,6 12,6 38 21 58 31 NW 1015,3 50 0,0
11.01.2018 10:00:00 9,9 1,8 9,0 9,6 12,7 23 13 44 24 NW 1015,0 58 0,0
11.01.2018 09:00:00 9,6 2,0 8,8 9,6 12,7 16 9 49 26 NW 1014,2 60 0,0
11.01.2018 08:00:00 9,9 1,8 8,6 9,7 12,7 26 14 55 30 NW 1013,5 60 0,0
11.01.2018 07:00:00 9,2 2,3 8,2 9,7 12,7 18 10 43 23 NW 1013,4 10 0,0
11.01.2018 06:00:00 9,1 2,6 8,1 9,7 12,6 20 11 34 18 NW 1013,3 60 0,0
11.01.2018 05:00:00 9,0 2,8 7,9 9,8 12,7 21 11 48 26 NW 1013,6 60 0,0
11.01.2018 04:00:00 9,0 3,4 7,2 9,8 12,7 23 13 41 22 NW 1013,8 60 0,0
11.01.2018 03:00:00 8,0 4,0 5,5 9,8 12,7 11 6 27 15 NW 1014,3 10 0,0
11.01.2018 02:00:00 6,7 4,2 5,4 9,9 12,7 14 7 38 20 NW 1014,6 12 0,8

tt = Température de l'air
td = dewpoint
tt 5cm = Température de l'air 5cm
tt -20cm = Température de l'air -20cm
tt -100cm = Température de l'air -100cm
ff = Vitesse du vent
fx = gusts
dd = Direction du vent
ppp = reduced air pressure
vv = visibility
rr = Quantités de précipitations

stations d'obs. à proximité